Weather History for Puyallup, WA

Change the Weather History Date:

Saturday, June 29, 2013

  Actual Average (KTCM) Record (KTCM)
Temperature  
Mean Temperature 72 °F -  
Max Temperature 84 °F 69 °F 92 °F (2008)
Min Temperature 60 °F 49 °F 42 °F (2009)
Cooling Degree Days 7    
Growing Degree Days 22 (Base 50)    
Moisture  
Dew Point 61 °F    
Average Humidity 73    
Maximum Humidity 100    
Minimum Humidity 42    
Precipitation  
Precipitation 0.00 in - - ()
Sea Level Pressure  
Sea Level Pressure 30.08 in    
Wind  
Wind Speed 0 mph (NW)    
Max Wind Speed 5 mph    
Max Gust Speed -    
Visibility 10 miles    
Events      
Averages and records for this station are not official NWS values.
T = Trace of Precipitation, MM = Missing Value Source: NWS Daily Summary

Daily Weather History Graph

Daily Weather History Graph

Search for Another Location

Airport:

Trip Planner

Search our weather history database for the weather conditions in past years. The results will help you decide how hot, cold, wet, or windy it might be!

Date:

Astronomy

Jun. 29, 2013 Rise Set
Actual Time 5:16 AM PDT 9:08 PM PDT
Civil Twilight 4:36 AM PDT 9:48 PM PDT
Nautical Twilight 3:42 AM PDT 10:42 PM PDT
Astronomical Twilight 2:21 AM PDT 12:03 AM PDT
Moon 12:11 AM PDT (6/29) 1:04 PM PDT (6/29)
Length of Visible Light 17h 11m
Length of Day
15h 51m
Waning Gibbous, 54% of the Moon is Illuminated
Jun 29
Waning Gibbous
Jun 29
Last Quarter
Jul 8
New
Jul 15
First Quarter
Jul 22
Full

Hourly Weather History & Observations

Time (PDT) Temp. Heat Index Dew Point Humidity Pressure Visibility Wind Dir Wind Speed Gust Speed Precip Events Conditions
12:15 AM 62.6 °F - 62.6 °F 100% 30.12 in 10.0 mi Calm Calm - N/A   Mostly Cloudy
12:35 AM 62.6 °F - 62.6 °F 100% 30.12 in 10.0 mi Calm Calm - N/A   Mostly Cloudy
12:55 AM 62.6 °F - 62.6 °F 100% 30.12 in 10.0 mi Calm Calm - N/A   Mostly Cloudy
1:15 AM 62.6 °F - 62.6 °F 100% 30.12 in 10.0 mi Calm Calm - N/A   Mostly Cloudy
1:35 AM 60.8 °F - 60.8 °F 100% 30.12 in 10.0 mi Calm Calm - N/A   Mostly Cloudy
1:55 AM 62.6 °F - 60.8 °F 94% 30.13 in 10.0 mi Calm Calm - N/A   Mostly Cloudy
2:15 AM 62.6 °F - 60.8 °F 94% 30.13 in 10.0 mi Calm Calm - N/A   Mostly Cloudy
2:35 AM 62.6 °F - 60.8 °F 94% 30.13 in 10.0 mi Calm Calm - N/A   Mostly Cloudy
2:55 AM 62.6 °F - 60.8 °F 94% 30.14 in 10.0 mi Calm Calm - N/A   Overcast
3:15 AM 62.6 °F - 60.8 °F 94% 30.13 in 10.0 mi Calm Calm - N/A   Mostly Cloudy
3:35 AM 62.6 °F - 60.8 °F 94% 30.13 in 10.0 mi Calm Calm - N/A   Mostly Cloudy
3:55 AM 62.6 °F - 62.6 °F 100% 30.13 in 10.0 mi Calm Calm - N/A   Mostly Cloudy
4:15 AM 64.4 °F - 59.0 °F 83% 30.12 in 10.0 mi Calm Calm - N/A   Mostly Cloudy
4:35 AM 62.6 °F - 60.8 °F 94% 30.12 in 10.0 mi Calm Calm - N/A   Mostly Cloudy
4:55 AM 60.8 °F - 60.8 °F 100% 30.11 in 10.0 mi Calm Calm - N/A   Mostly Cloudy
5:15 AM 60.8 °F - 60.8 °F 100% 30.11 in 10.0 mi Calm Calm - N/A   Mostly Cloudy
5:35 AM 60.8 °F - 60.8 °F 100% 30.10 in 10.0 mi Calm Calm - N/A   Mostly Cloudy
5:55 AM 62.6 °F - 60.8 °F 94% 30.11 in 10.0 mi Calm Calm - N/A   Scattered Clouds
6:15 AM 62.6 °F - 62.6 °F 100% 30.11 in 10.0 mi Calm Calm - N/A   Mostly Cloudy
6:35 AM 62.6 °F - 59.0 °F 88% 30.12 in 10.0 mi Calm Calm - N/A   Mostly Cloudy
6:55 AM 64.4 °F - 60.8 °F 88% 30.11 in 10.0 mi Calm Calm - N/A   Mostly Cloudy
7:15 AM 64.4 °F - 59.0 °F 83% 30.11 in 10.0 mi Calm Calm - N/A   Scattered Clouds
7:35 AM 64.4 °F - 60.8 °F 88% 30.11 in 10.0 mi Calm Calm - N/A   Scattered Clouds
7:55 AM 66.2 °F - 59.0 °F 78% 30.11 in 10.0 mi Calm Calm - N/A   Mostly Cloudy
8:15 AM 68.0 °F - 59.0 °F 73% 30.12 in 10.0 mi Calm Calm - N/A   Scattered Clouds
8:35 AM 69.8 °F - 59.0 °F 68% 30.12 in 10.0 mi Calm Calm - N/A   Partly Cloudy
8:55 AM 69.8 °F - 59.0 °F 68% 30.11 in 10.0 mi Calm Calm - N/A   Scattered Clouds
9:15 AM 71.6 °F - 60.8 °F 69% 30.11 in 10.0 mi Calm Calm - N/A   Scattered Clouds
9:35 AM 71.6 °F - 59.0 °F 64% 30.11 in 10.0 mi Calm Calm - N/A   Scattered Clouds
9:55 AM 71.6 °F - 59.0 °F 64% 30.11 in 10.0 mi Calm Calm - N/A   Mostly Cloudy
10:15 AM 73.4 °F - 60.8 °F 65% 30.11 in 10.0 mi Calm Calm - N/A   Mostly Cloudy
10:35 AM 73.4 °F - 62.6 °F 69% 30.11 in 10.0 mi Calm Calm - N/A   Scattered Clouds
10:55 AM 73.4 °F - 62.6 °F 69% 30.11 in 10.0 mi Calm Calm - N/A   Scattered Clouds
11:15 AM 73.4 °F - 62.6 °F 69% 30.12 in 10.0 mi Calm Calm - N/A   Scattered Clouds
11:35 AM 73.4 °F - 62.6 °F 69% 30.12 in 10.0 mi Calm Calm - N/A   Scattered Clouds
11:55 AM 75.2 °F - 62.6 °F 65% 30.12 in 10.0 mi NNW 3.5 mph - N/A   Scattered Clouds
12:15 PM 75.2 °F - 60.8 °F 61% 30.12 in 10.0 mi Calm Calm - N/A   Scattered Clouds
12:35 PM 77.0 °F - 59.0 °F 54% 30.12 in 10.0 mi Calm Calm - N/A   Scattered Clouds
12:55 PM 77.0 °F - 59.0 °F 54% 30.11 in 10.0 mi Calm Calm - N/A   Scattered Clouds
1:15 PM 78.8 °F - 59.0 °F 51% 30.10 in 10.0 mi Calm Calm - N/A   Scattered Clouds
1:35 PM 78.8 °F - 59.0 °F 51% 30.10 in 10.0 mi Calm Calm - N/A   Scattered Clouds
1:55 PM 78.8 °F - 59.0 °F 51% 30.09 in 10.0 mi Calm Calm - N/A   Mostly Cloudy
2:15 PM 80.6 °F 81.1 °F 59.0 °F 48% 30.08 in 10.0 mi Calm Calm - N/A   Mostly Cloudy
2:35 PM 80.6 °F 81.1 °F 59.0 °F 48% 30.08 in 10.0 mi Calm Calm - N/A   Mostly Cloudy
2:55 PM 80.6 °F 81.1 °F 59.0 °F 48% 30.07 in 10.0 mi Calm Calm - N/A   Scattered Clouds
3:15 PM 80.6 °F 81.1 °F 59.0 °F 48% 30.07 in 10.0 mi Calm Calm - N/A   Mostly Cloudy
3:35 PM 82.4 °F 82.9 °F 60.8 °F 48% 30.07 in 10.0 mi Calm Calm - N/A   Scattered Clouds
3:55 PM 82.4 °F 82.5 °F 59.0 °F 45% 30.06 in 10.0 mi WSW 4.6 mph - N/A   Scattered Clouds
4:15 PM 84.2 °F 84.4 °F 60.8 °F 45% 30.06 in 10.0 mi NNW 3.5 mph - N/A   Scattered Clouds
4:35 PM 84.2 °F 84.4 °F 60.8 °F 45% 30.05 in 10.0 mi Calm Calm - N/A   Mostly Cloudy
4:55 PM 84.2 °F 83.8 °F 59.0 °F 42% 30.05 in 10.0 mi Calm Calm - N/A   Mostly Cloudy
5:15 PM 84.2 °F 83.8 °F 59.0 °F 42% 30.05 in 10.0 mi Calm Calm - N/A   Mostly Cloudy
5:35 PM 84.2 °F 84.4 °F 60.8 °F 45% 30.04 in 10.0 mi Calm Calm - N/A   Overcast
5:55 PM 84.2 °F 83.8 °F 59.0 °F 42% 30.03 in 10.0 mi Calm Calm - N/A   Overcast
6:15 PM 84.2 °F 83.8 °F 59.0 °F 42% 30.03 in 10.0 mi Calm Calm - N/A   Scattered Clouds
6:35 PM 84.2 °F 84.4 °F 60.8 °F 45% 30.03 in 10.0 mi Calm Calm - N/A   Mostly Cloudy
6:55 PM 82.4 °F 82.9 °F 60.8 °F 48% 30.03 in 10.0 mi Calm Calm - N/A   Scattered Clouds
7:15 PM 82.4 °F 83.4 °F 62.6 °F 51% 30.02 in 10.0 mi Calm Calm - N/A   Scattered Clouds
7:35 PM 80.6 °F 81.8 °F 62.6 °F 54% 30.02 in 10.0 mi Calm Calm - N/A   Mostly Cloudy
7:55 PM 80.6 °F 82.3 °F 64.4 °F 58% 30.02 in 10.0 mi Calm Calm - N/A   Mostly Cloudy
8:15 PM 77.0 °F - 64.4 °F 65% 30.02 in 10.0 mi Calm Calm - N/A   Mostly Cloudy
8:35 PM 75.2 °F - 64.4 °F 69% 30.02 in 10.0 mi Calm Calm - N/A   Mostly Cloudy
8:55 PM 73.4 °F - 64.4 °F 73% 30.02 in 10.0 mi Calm Calm - N/A   Mostly Cloudy
9:15 PM 71.6 °F - 64.4 °F 78% 30.02 in 10.0 mi Calm Calm - N/A   Mostly Cloudy
9:35 PM 68.0 °F - 64.4 °F 88% 30.03 in 10.0 mi Calm Calm - N/A   Scattered Clouds
9:55 PM 68.0 °F - 64.4 °F 88% 30.03 in 10.0 mi Calm Calm - N/A   Scattered Clouds
10:15 PM 68.0 °F - 64.4 °F 88% 30.03 in 10.0 mi Calm Calm - N/A   Mostly Cloudy
10:35 PM 66.2 °F - 64.4 °F 94% 30.04 in 10.0 mi Calm Calm - N/A   Mostly Cloudy
10:55 PM 64.4 °F - 64.4 °F 100% 30.04 in 10.0 mi Calm Calm - N/A   Mostly Cloudy
11:15 PM 66.2 °F - 62.6 °F 88% 30.04 in 10.0 mi Calm Calm - N/A   Scattered Clouds
11:35 PM 64.4 °F - 62.6 °F 94% 30.04 in 10.0 mi Calm Calm - N/A   Scattered Clouds
11:55 PM 62.6 °F - 62.6 °F 100% 30.04 in 10.0 mi Calm Calm - N/A   Scattered Clouds